Hourly Weather Aga-Batyr

Today, 13 June, Sunday

Time Temperature Precipitation Wind Pressure Humidity
00:00 +22°C° 0.1 mm 1 mps 746 mmHg 71%
01:00 +22°C° 0 mm 1 mps 746 mmHg 72%
02:00 +21°C° 0 mm 1 mps 746 mmHg 73%
03:00 +21°C° 0 mm 1 mps 746 mmHg 73%
04:00 +21°C° 0 mm 1 mps 746 mmHg 75%
05:00 +21°C° 0 mm 1 mps 746 mmHg 77%
06:00 +21°C° 0 mm 1 mps 746 mmHg 78%
07:00 +22°C° 0 mm 1 mps 746 mmHg 76%
08:00 +23°C° 0 mm 1 mps 747 mmHg 74%
09:00 +23°C° 0 mm 1 mps 747 mmHg 75%
10:00 +23°C° 0.3 mm 1 mps 747 mmHg 76%
11:00 +23°C° 0.3 mm 1 mps 747 mmHg 76%
12:00 +22°C° 0.3 mm 1 mps 747 mmHg 77%
13:00 +23°C° 0.4 mm 1 mps 747 mmHg 76%
14:00 +23°C° 0.4 mm 1 mps 747 mmHg 75%
15:00 +23°C° 0.4 mm 1 mps 747 mmHg 74%
16:00 +23°C° 0.6 mm 2 mps 747 mmHg 76%
17:00 +23°C° 0.6 mm 2 mps 747 mmHg 78%
18:00 +23°C° 0.6 mm 2 mps 747 mmHg 80%
19:00 +22°C° 0.2 mm 1 mps 747 mmHg 83%
20:00 +21°C° 0.2 mm 1 mps 747 mmHg 86%
21:00 +20°C° 0.2 mm 1 mps 748 mmHg 89%
22:00 +20°C° 0 mm 1 mps 747 mmHg 90%
23:00 +19°C° 0 mm 2 mps 747 mmHg 91%

Tomorrow, 14 June, Monday

Time Temperature Precipitation Wind Pressure Humidity
00:00 +18°C° 0 mm 2 mps 747 mmHg 92%
01:00 +18°C° 0 mm 2 mps 747 mmHg 92%
02:00 +18°C° 0 mm 2 mps 747 mmHg 93%
03:00 +17°C° 0 mm 2 mps 747 mmHg 93%
04:00 +18°C° 0 mm 2 mps 747 mmHg 91%
05:00 +19°C° 0 mm 2 mps 747 mmHg 89%
06:00 +20°C° 0 mm 1 mps 748 mmHg 87%
07:00 +22°C° 0 mm 1 mps 747 mmHg 80%
08:00 +23°C° 0 mm 1 mps 747 mmHg 73%
09:00 +23°C° 0 mm 0 mps 747 mmHg 66%
10:00 +26°C° 0 mm 1 mps 747 mmHg 61%
11:00 +27°C° 0 mm 2 mps 747 mmHg 56%
12:00 +28°C° 0 mm 2 mps 747 mmHg 51%
13:00 +29°C° 0 mm 2 mps 747 mmHg 49%
14:00 +30°C° 0 mm 2 mps 746 mmHg 46%
15:00 +30°C° 0 mm 2 mps 746 mmHg 44%
16:00 +30°C° 0 mm 1 mps 746 mmHg 46%
17:00 +30°C° 0 mm 1 mps 746 mmHg 47%
18:00 +30°C° 0 mm 1 mps 746 mmHg 49%
19:00 +28°C° 0 mm 1 mps 746 mmHg 52%
20:00 +27°C° 0 mm 1 mps 746 mmHg 55%
21:00 +25°C° 0 mm 1 mps 746 mmHg 58%
22:00 +24°C° 0 mm 2 mps 746 mmHg 59%
23:00 +24°C° 0 mm 2 mps 745 mmHg 61%

Day after tomorrow, 15 June, Tuesday

Time Temperature Precipitation Wind Pressure Humidity
00:00 +23°C° 0 mm 2 mps 745 mmHg 62%
01:00 +23°C° 0 mm 2 mps 745 mmHg 65%
02:00 +23°C° 0 mm 2 mps 744 mmHg 67%
03:00 +21°C° 0 mm 2 mps 744 mmHg 70%
04:00 +23°C° 0.1 mm 1 mps 744 mmHg 71%
05:00 +23°C° 0.1 mm 1 mps 744 mmHg 72%
06:00 +23°C° 0.1 mm 1 mps 744 mmHg 73%
07:00 +25°C° 0.1 mm 2 mps 744 mmHg 67%
08:00 +26°C° 0.1 mm 2 mps 744 mmHg 62%
09:00 +28°C° 0.1 mm 2 mps 744 mmHg 56%
10:00 +29°C° 0 mm 2 mps 744 mmHg 52%
11:00 +30°C° 0 mm 2 mps 744 mmHg 48%
12:00 +31°C° 0 mm 2 mps 744 mmHg 44%
13:00 +32°C° 0 mm 2 mps 744 mmHg 43%
14:00 +32°C° 0 mm 2 mps 744 mmHg 41%
15:00 +33°C° 0 mm 1 mps 744 mmHg 40%
16:00 +33°C° 0 mm 1 mps 744 mmHg 42%
17:00 +33°C° 0 mm 1 mps 744 mmHg 44%
18:00 +32°C° 0 mm 1 mps 744 mmHg 46%
19:00 +30°C° 0 mm 2 mps 744 mmHg 51%
20:00 +28°C° 0 mm 2 mps 745 mmHg 57%
21:00 +27°C° 0 mm 3 mps 745 mmHg 62%
22:00 +26°C° 0 mm 2 mps 745 mmHg 64%
23:00 +25°C° 0 mm 2 mps 745 mmHg 66%

16 June, Wednesday

Time Temperature Precipitation Wind Pressure Humidity
00:00 +24°C° 0 mm 2 mps 744 mmHg 67%
01:00 +24°C° 0 mm 2 mps 744 mmHg 69%
02:00 +24°C° 0 mm 2 mps 744 mmHg 71%
03:00 +23°C° 0 mm 2 mps 744 mmHg 73%
04:00 +24°C° 0 mm 2 mps 744 mmHg 72%
05:00 +24°C° 0 mm 2 mps 744 mmHg 71%
06:00 +25°C° 0 mm 2 mps 744 mmHg 69%
07:00 +26°C° 0 mm 3 mps 744 mmHg 62%
08:00 +28°C° 0 mm 4 mps 744 mmHg 54%
09:00 +30°C° 0 mm 5 mps 744 mmHg 47%
10:00 +32°C° 0 mm 5 mps 744 mmHg 43%
11:00 +34°C° 0 mm 6 mps 743 mmHg 39%
12:00 +35°C° 0 mm 6 mps 743 mmHg 35%
13:00 +35°C° 0 mm 6 mps 743 mmHg 34%
14:00 +36°C° 0 mm 6 mps 742 mmHg 33%
15:00 +36°C° 0 mm 7 mps 742 mmHg 32%
16:00 +35°C° 0 mm 6 mps 742 mmHg 36%
17:00 +34°C° 0 mm 5 mps 742 mmHg 39%
18:00 +33°C° 0 mm 4 mps 743 mmHg 43%
19:00 +30°C° 0 mm 4 mps 743 mmHg 47%
20:00 +28°C° 0 mm 4 mps 743 mmHg 51%
21:00 +26°C° 0 mm 3 mps 744 mmHg 55%
22:00 +25°C° 0 mm 3 mps 743 mmHg 58%
23:00 +24°C° 0 mm 3 mps 743 mmHg 61%

17 June, Thursday

Time Temperature Precipitation Wind Pressure Humidity
00:00 +24°C° 0 mm 2 mps 743 mmHg 64%
01:00 +23°C° 0 mm 2 mps 743 mmHg 67%
02:00 +23°C° 0 mm 1 mps 743 mmHg 70%
03:00 +22°C° 0 mm 1 mps 743 mmHg 72%
04:00 +23°C° 0 mm 1 mps 743 mmHg 73%
05:00 +23°C° 0 mm 2 mps 743 mmHg 73%
06:00 +23°C° 0 mm 2 mps 743 mmHg 74%
07:00 +25°C° 0 mm 2 mps 743 mmHg 68%
08:00 +27°C° 0 mm 3 mps 743 mmHg 63%
09:00 +28°C° 0 mm 4 mps 743 mmHg 57%
10:00 +29°C° 0 mm 4 mps 743 mmHg 54%
11:00 +30°C° 0 mm 5 mps 743 mmHg 51%
12:00 +32°C° 0 mm 5 mps 743 mmHg 47%
13:00 +32°C° 0 mm 6 mps 743 mmHg 50%
14:00 +32°C° 0 mm 8 mps 744 mmHg 52%
15:00 +32°C° 0 mm 9 mps 744 mmHg 54%
16:00 +29°C° 0.1 mm 9 mps 745 mmHg 61%
17:00 +27°C° 0.1 mm 9 mps 746 mmHg 67%
18:00 +24°C° 0.1 mm 9 mps 747 mmHg 74%
19:00 +23°C° 0.2 mm 8 mps 747 mmHg 76%
20:00 +22°C° 0.2 mm 7 mps 748 mmHg 77%
21:00 +21°C° 0.2 mm 6 mps 748 mmHg 79%
22:00 +21°C° 0.1 mm 6 mps 748 mmHg 79%
23:00 +21°C° 0.1 mm 6 mps 748 mmHg 78%

18 June, Friday

Time Temperature Precipitation Wind Pressure Humidity
00:00 +21°C° 0.1 mm 5 mps 749 mmHg 77%
01:00 +20°C° 0 mm 5 mps 749 mmHg 79%
02:00 +20°C° 0 mm 5 mps 749 mmHg 82%
03:00 +19°C° 0 mm 5 mps 749 mmHg 84%
04:00 +20°C° 0 mm 5 mps 750 mmHg 83%
05:00 +20°C° 0 mm 6 mps 750 mmHg 82%
06:00 +20°C° 0 mm 6 mps 750 mmHg 81%
07:00 +22°C° 0 mm 7 mps 750 mmHg 74%
08:00 +23°C° 0 mm 7 mps 750 mmHg 66%
09:00 +26°C° 0 mm 7 mps 750 mmHg 59%
10:00 +27°C° 0 mm 7 mps 750 mmHg 56%
11:00 +28°C° 0 mm 7 mps 750 mmHg 52%
12:00 +29°C° 0 mm 6 mps 750 mmHg 49%
13:00 +29°C° 0 mm 6 mps 749 mmHg 48%
14:00 +29°C° 0 mm 6 mps 749 mmHg 47%
15:00 +30°C° 0 mm 6 mps 749 mmHg 46%
16:00 +29°C° 0 mm 5 mps 749 mmHg 50%
17:00 +29°C° 0 mm 5 mps 749 mmHg 54%
18:00 +28°C° 0 mm 5 mps 749 mmHg 57%
19:00 +26°C° 0 mm 4 mps 750 mmHg 64%
20:00 +25°C° 0 mm 3 mps 750 mmHg 71%
21:00 +22°C° 0 mm 3 mps 750 mmHg 79%
22:00 +22°C° 0 mm 3 mps 750 mmHg 81%
23:00 +21°C° 0 mm 3 mps 750 mmHg 83%
Show more